172P/Yeung (2002)

Japanese version
Home page
Updated on November 12, 2005

---------------------------------------------------------------------

* Profile

Designation 172P/2002 BV
Discovery Date January 21, 2002
Magnitude 20.4 mag
Discoverer William Kwong Yeung (Benson, AZ)

* Orbital Elements

Epoch 2002 Mar. 27.0 TT = JDT 2452360.5
T 2002 Mar. 11.05812 TT                                 MPC
q   2.2444617            (2000.0)            P               Q
n   0.14966855     Peri.  178.77060     -0.77783576     +0.61514997
a   3.5133036      Node    40.14116     -0.57829806     -0.62040339
e   0.3611535      Incl.   11.51510     -0.24605463     -0.48650811
P   6.59

* Finding Charts

* Magnitudes Graph

        H = 14.0  G = 0.15

---------------------------------------------------------------------

The orbital elements are calculated by Dr. Brian G. Marsden and printed on M.P.E.C. 2002-J34.
The charts are made with StellaNavigator Ver.2.0 for Windows (AstroArts / ASCII).
The magnitudes graphs are made with Comet for Windows.

---------------------------------------------------------------------

Copyright(C) Seiichi Yoshida (comet@aerith.net). All rights reserved.